Flag for Japan Weather past 2 weeks in Minamisōma, Japan

Now
73 °F

Passing clouds.


Feels Like: 76 °F
Forecast: 62 / 77 °F
Wind: No wind

Location: Sendai Airport

Current Time: Sep 5, 2015 at 12:25:16 AM

Latest Report: Sep 4, 2015 at 9:00 PM


Visibility: N/A

Pressure: 29.77 "Hg

Humidity: 69%

Dew point: 63 °F

Location of MinamisōmaLocation

Historic Weather in Minamisōma — Graph

°F

Minamisōma temperature yesterday

Maximum temperature yesterday: 82 °F (at 3:00 PM)
Minimum temperature yesterday: 70 °F (at 6:00 AM)
Average temperature yesterday: 77 °F

Past Weeks' High & Low Weather Summary

 TemperatureHumidityPressure
High90 °F (Sep 2, 1:00 PM)100% (Aug 23, 7:00 AM)30.01 "Hg (Aug 23, 7:00 AM)
Low64 °F (Aug 25, 6:00 AM)49% (Sep 2, 2:00 PM)29.56 "Hg (Aug 22, 10:45 AM)
Average71 °F83%29.84 "Hg
* Reported Aug 20 9:00 PM — Sep 4 9:00 PM, Minamisōma, Weather by CustomWeather, © 2015

Note: Actual official high and low records may vary slightly from our data, if they occured in-between our weather recording intervals... More about our weather records

Advertising

Minamisōma weather history for previous 24 hours

 ConditionsComfort  
Time TempWeatherWind HumidityBarometerVisibility
9:00 PM
Fri, Sep 4
73 °FPassing clouds.No wind69%29.77 "HgN/A
8:00 PM75 °FPassing clouds.7 mph65%29.77 "HgN/A
7:00 PM75 °FPassing clouds.6 mph61%29.74 "HgN/A
6:00 PM77 °FBroken clouds.5 mph61%29.74 "HgN/A
5:00 PM79 °FScattered clouds.6 mph61%29.71 "HgN/A
4:00 PM81 °FScattered clouds.10 mph54%29.68 "HgN/A
3:00 PM82 °FBroken clouds.16 mph51%29.68 "HgN/A
2:00 PM81 °FBroken clouds.17 mph54%29.68 "HgN/A
1:00 PM81 °FBroken clouds.3 mph62%29.68 "HgN/A
12:00 PM79 °FBroken clouds.5 mph70%29.68 "HgN/A
11:00 AM77 °FBroken clouds.5 mph74%29.68 "HgN/A
10:00 AM75 °FPartly sunny.6 mph78%29.71 "HgN/A
9:00 AM75 °FSprinkles. Broken clouds.5 mph83%29.71 "HgN/A
8:00 AM73 °FPartly sunny.8 mph83%29.71 "HgN/A
7:00 AM72 °FBroken clouds.6 mph94%29.71 "HgN/A
6:00 AM70 °FSprinkles. Broken clouds.2 mph94%29.71 "Hg4 mi
Weather by CustomWeather, © 2015

See weather overviewHow to use our weather pages